CEB1834 RPVP-RPLL

Flight info

Callsign CEB1834
Flight time 1h 9m
Altitude 37000
Route DABOY1E DABOY W281 LEGED N884 LUBAN LUBAN5R
Aircraft A20N/M-SDE2E3FGHIRWXY/LB1

Departure

Time 2026-04-22 12:22
Airport Puerto Princesa International Airport / PAF Antonio Bautista Air Base (RPVP)

Arrival

Time 2026-04-22 13:32
Airport Ninoy Aquino International Airport (RPLL)
Time Latitude Longitude Altitude Speed Heading
2026-04-22 11:56 9.74507 118.75117 77 ft 0 kts
2026-04-22 12:10 9.74499 118.75117 77 ft 2 kts
2026-04-22 12:11 9.74484 118.75116 77 ft 2 kts
2026-04-22 12:11 9.74469 118.75115 77 ft 2 kts
2026-04-22 12:11 9.74453 118.75114 77 ft 2 kts
2026-04-22 12:11 9.74443 118.75114 77 ft 1 kts
2026-04-22 12:12 9.74429 118.75116 77 ft 2 kts 334°
2026-04-22 12:12 9.74417 118.75124 77 ft 2 kts 310°
2026-04-22 12:12 9.74409 118.75138 77 ft 2 kts 284°
2026-04-22 12:12 9.74408 118.75146 77 ft 1 kts 269°
2026-04-22 12:13 9.74408 118.75150 77 ft 0 kts 272°
2026-04-22 12:16 9.74408 118.75146 76 ft 1 kts 272°
2026-04-22 12:17 9.74409 118.75129 76 ft 2 kts 273°
2026-04-22 12:17 9.74410 118.75105 77 ft 3 kts 273°
2026-04-22 12:17 9.74412 118.75074 76 ft 4 kts 272°
2026-04-22 12:17 9.74413 118.75037 76 ft 5 kts 272°
2026-04-22 12:18 9.74415 118.74994 76 ft 6 kts 272°
2026-04-22 12:18 9.74417 118.74945 77 ft 7 kts 272°
2026-04-22 12:18 9.74420 118.74891 76 ft 8 kts 272°
2026-04-22 12:18 9.74422 118.74831 76 ft 8 kts 272°
2026-04-22 12:19 9.74423 118.74766 77 ft 9 kts 265°
2026-04-22 12:19 9.74394 118.74712 76 ft 7 kts 207°
2026-04-22 12:19 9.74359 118.74706 76 ft 2 kts 182°
2026-04-22 12:19 9.74352 118.74706 76 ft 0 kts 182°
2026-04-22 12:20 9.74348 118.74706 77 ft 1 kts 182°
2026-04-22 12:20 9.74326 118.74706 76 ft 4 kts 181°
2026-04-22 12:21 9.74285 118.74706 76 ft 6 kts 169°
2026-04-22 12:21 9.74257 118.74740 76 ft 7 kts 94°
2026-04-22 12:21 9.74255 118.74796 76 ft 11 kts 92°
2026-04-22 12:21 9.74241 118.75103 77 ft 78 kts 92°
2026-04-22 12:22 9.74207 118.75869 77 ft 138 kts 92°
2026-04-22 12:22 9.74152 118.76987 271 ft 168 kts 95°
2026-04-22 12:22 9.74070 118.78173 809 ft 172 kts 96°
2026-04-22 12:22 9.74061 118.79385 1463 ft 176 kts 77°
2026-04-22 12:23 9.74787 118.80382 1991 ft 186 kts 30°
2026-04-22 12:23 9.76078 118.80766 2344 ft 203 kts 10°
2026-04-22 12:23 9.77532 118.80956 2692 ft 220 kts
2026-04-22 12:23 9.79107 118.81177 3049 ft 237 kts
2026-04-22 12:24 9.80831 118.81477 3400 ft 256 kts 11°
2026-04-22 12:24 9.82578 118.81825 4117 ft 259 kts 12°
2026-04-22 12:24 9.84347 118.82196 4864 ft 261 kts 12°
2026-04-22 12:24 9.86143 118.82583 5625 ft 265 kts 12°
2026-04-22 12:25 9.87948 118.82967 6377 ft 268 kts 10°
2026-04-22 12:25 9.89849 118.83209 6890 ft 282 kts
2026-04-22 12:25 9.91880 118.83219 7443 ft 294 kts 358°
2026-04-22 12:25 9.93837 118.83157 8188 ft 297 kts 357°
2026-04-22 12:26 9.95903 118.83081 8986 ft 299 kts 356°
2026-04-22 12:26 9.97987 118.83008 9761 ft 302 kts 356°
2026-04-22 12:26 10.00077 118.82939 10480 ft 306 kts 356°
2026-04-22 12:26 10.02263 118.82869 10874 ft 322 kts 356°
2026-04-22 12:27 10.04542 118.82797 11339 ft 334 kts 356°
2026-04-22 12:27 10.06856 118.82728 12062 ft 337 kts 356°
2026-04-22 12:27 10.09206 118.82658 12799 ft 339 kts 356°
2026-04-22 12:27 10.11565 118.82587 13466 ft 343 kts 356°
2026-04-22 12:28 10.13954 118.82516 14121 ft 347 kts 357°
2026-04-22 12:28 10.16365 118.82443 14770 ft 351 kts 357°
2026-04-22 12:28 10.18829 118.82368 15418 ft 355 kts 357°
2026-04-22 12:28 10.21285 118.82294 16047 ft 359 kts 357°
2026-04-22 12:29 10.23781 118.82219 16670 ft 363 kts 357°
2026-04-22 12:29 10.26311 118.82143 17285 ft 366 kts 357°
2026-04-22 12:29 10.28884 118.82068 17892 ft 370 kts 358°
2026-04-22 12:29 10.31428 118.81993 18473 ft 373 kts 358°
2026-04-22 12:30 10.36684 118.81838 19619 ft 380 kts 358°
2026-04-22 12:30 10.39345 118.81762 20182 ft 383 kts 359°
2026-04-22 12:30 10.42014 118.81792 20735 ft 386 kts
2026-04-22 12:31 10.44675 118.81954 21281 ft 389 kts
2026-04-22 12:31 10.47404 118.82147 21831 ft 392 kts
2026-04-22 12:31 10.50151 118.82346 22372 ft 394 kts
2026-04-22 12:31 10.52916 118.82544 22905 ft 397 kts
2026-04-22 12:32 10.55686 118.82741 23429 ft 400 kts
2026-04-22 12:32 10.61292 118.83137 24436 ft 405 kts
2026-04-22 12:32 10.64099 118.83334 24920 ft 407 kts
2026-04-22 12:33 10.66946 118.83535 25397 ft 410 kts
2026-04-22 12:33 10.69768 118.83733 25856 ft 412 kts
2026-04-22 12:33 10.72648 118.83935 26311 ft 414 kts
2026-04-22 12:33 10.75507 118.84136 26748 ft 416 kts
2026-04-22 12:34 10.78405 118.84340 27178 ft 418 kts
2026-04-22 12:34 10.81319 118.84545 27592 ft 420 kts
2026-04-22 12:34 10.84226 118.84750 27985 ft 422 kts
2026-04-22 12:34 10.87186 118.84959 28367 ft 424 kts
2026-04-22 12:35 10.90106 118.85164 28734 ft 425 kts
2026-04-22 12:35 10.93029 118.85377 29208 ft 423 kts
2026-04-22 12:35 10.95964 118.85586 29725 ft 420 kts
2026-04-22 12:35 10.98850 118.85787 30048 ft 421 kts
2026-04-22 12:36 11.01804 118.85994 30306 ft 423 kts
2026-04-22 12:36 11.04716 118.86199 30515 ft 427 kts
2026-04-22 12:36 11.07701 118.86407 30775 ft 428 kts
2026-04-22 12:36 11.10667 118.86615 31125 ft 427 kts
2026-04-22 12:37 11.13653 118.86823 31503 ft 426 kts
2026-04-22 12:37 11.16599 118.87027 31859 ft 424 kts
2026-04-22 12:37 11.19505 118.87229 32190 ft 423 kts
2026-04-22 12:37 11.22448 118.87434 32515 ft 422 kts
2026-04-22 12:38 11.25404 118.87641 32838 ft 421 kts
2026-04-22 12:38 11.28308 118.87845 33147 ft 420 kts
2026-04-22 12:38 11.31194 118.88048 33448 ft 419 kts
2026-04-22 12:38 11.34127 118.88254 33749 ft 418 kts
2026-04-22 12:39 11.36997 118.88456 34039 ft 417 kts
2026-04-22 12:39 11.42767 118.88863 34575 ft 416 kts
2026-04-22 12:39 11.45674 118.89069 34836 ft 415 kts
2026-04-22 12:40 11.48549 118.89271 35087 ft 414 kts
2026-04-22 12:40 11.51418 118.89475 35301 ft 414 kts
2026-04-22 12:40 11.54271 118.89676 35485 ft 415 kts
2026-04-22 12:40 11.57170 118.89880 35662 ft 416 kts
2026-04-22 12:41 11.60039 118.90083 35833 ft 416 kts
2026-04-22 12:41 11.62941 118.90288 36005 ft 417 kts
2026-04-22 12:41 11.65831 118.90492 36167 ft 417 kts
2026-04-22 12:41 11.68708 118.90695 36324 ft 418 kts
2026-04-22 12:42 11.71614 118.90900 36466 ft 419 kts
2026-04-22 12:42 11.74538 118.91106 36605 ft 419 kts
2026-04-22 12:42 11.77444 118.91312 36735 ft 420 kts
2026-04-22 12:42 11.80368 118.91518 36861 ft 421 kts
2026-04-22 12:43 11.83262 118.91724 36885 ft 422 kts
2026-04-22 12:43 11.89090 118.92136 36897 ft 422 kts
2026-04-22 12:44 11.94961 118.92551 36899 ft 422 kts
2026-04-22 12:44 12.00782 118.92963 36900 ft 421 kts
2026-04-22 12:45 12.06611 118.93377 36899 ft 421 kts
2026-04-22 12:45 12.12482 118.93792 36900 ft 421 kts
2026-04-22 12:46 12.18312 118.94204 36900 ft 421 kts
2026-04-22 12:46 12.24107 118.94614 36900 ft 421 kts
2026-04-22 12:47 12.29964 118.95029 36900 ft 421 kts
2026-04-22 12:47 12.35797 118.95444 36900 ft 420 kts
2026-04-22 12:48 12.41630 118.95858 36902 ft 420 kts
2026-04-22 12:48 12.47488 118.96275 36907 ft 420 kts
2026-04-22 12:49 12.53320 118.96690 36913 ft 421 kts
2026-04-22 12:49 12.59208 118.97109 36917 ft 421 kts
2026-04-22 12:50 12.65085 118.97528 36921 ft 421 kts
2026-04-22 12:50 12.70931 118.97945 36924 ft 421 kts
2026-04-22 12:51 12.76752 118.98361 36924 ft 421 kts
2026-04-22 12:51 12.82615 118.98782 36925 ft 421 kts
2026-04-22 12:52 12.88481 118.99203 36924 ft 421 kts
2026-04-22 12:52 12.94322 118.99703 36921 ft 421 kts
2026-04-22 12:53 12.99911 119.01413 36922 ft 423 kts 24°
2026-04-22 12:53 13.04890 119.04644 36920 ft 423 kts 40°
2026-04-22 12:54 13.08874 119.09081 36923 ft 424 kts 52°
2026-04-22 12:54 13.12486 119.13860 36923 ft 427 kts 52°
2026-04-22 12:55 13.16158 119.18715 36924 ft 428 kts 52°
2026-04-22 12:55 13.19807 119.23538 36924 ft 428 kts 52°
2026-04-22 12:56 13.22329 119.26870 36925 ft 428 kts 52°
2026-04-22 12:56 13.23480 119.28391 36924 ft 428 kts 52°
2026-04-22 12:57 13.27099 119.33176 36924 ft 428 kts 52°
2026-04-22 12:57 13.30766 119.38025 36924 ft 428 kts 52°
2026-04-22 12:58 13.34385 119.42815 36924 ft 428 kts 52°
2026-04-22 12:58 13.38022 119.47629 36924 ft 428 kts 52°
2026-04-22 12:59 13.41660 119.52450 36924 ft 428 kts 52°
2026-04-22 12:59 13.45299 119.57275 36924 ft 428 kts 52°
2026-04-22 13:00 13.48964 119.62135 36441 ft 434 kts 52°
2026-04-22 13:00 13.50820 119.64599 35645 ft 440 kts 52°
2026-04-22 13:00 13.52719 119.67125 34846 ft 443 kts 53°
2026-04-22 13:00 13.54588 119.69621 34155 ft 443 kts 53°
2026-04-22 13:01 13.56463 119.72124 33495 ft 442 kts 52°
2026-04-22 13:01 13.58335 119.74618 32855 ft 441 kts 52°
2026-04-22 13:01 13.60218 119.77125 32210 ft 440 kts 52°
2026-04-22 13:01 13.62026 119.79532 31583 ft 440 kts 52°
2026-04-22 13:02 13.63884 119.82002 30931 ft 439 kts 52°
2026-04-22 13:02 13.65741 119.84472 30287 ft 438 kts 52°
2026-04-22 13:02 13.67598 119.86942 29858 ft 432 kts 52°
2026-04-22 13:02 13.69435 119.89387 29433 ft 426 kts 52°
2026-04-22 13:03 13.71221 119.91764 29007 ft 420 kts 52°
2026-04-22 13:03 13.72957 119.94074 28583 ft 416 kts 52°
2026-04-22 13:03 13.74731 119.96439 28145 ft 411 kts 52°
2026-04-22 13:03 13.76478 119.98766 27717 ft 407 kts 52°
2026-04-22 13:04 13.78184 120.01041 27297 ft 403 kts 52°
2026-04-22 13:04 13.79898 120.03326 26878 ft 399 kts 52°
2026-04-22 13:04 13.81555 120.05537 26465 ft 395 kts 52°
2026-04-22 13:04 13.83155 120.07667 26058 ft 392 kts 50°
2026-04-22 13:05 13.85064 120.09748 25610 ft 388 kts 40°
2026-04-22 13:05 13.87211 120.11375 25185 ft 384 kts 30°
2026-04-22 13:05 13.89559 120.12603 24775 ft 381 kts 24°
2026-04-22 13:05 13.91973 120.13691 24352 ft 378 kts 23°
2026-04-22 13:06 13.94370 120.14751 23934 ft 375 kts 22°
2026-04-22 13:06 13.96780 120.15819 23508 ft 372 kts 23°
2026-04-22 13:06 13.99122 120.16864 23098 ft 370 kts 23°
2026-04-22 13:06 14.01482 120.17922 22679 ft 367 kts 23°
2026-04-22 13:07 14.03790 120.18959 22266 ft 365 kts 23°
2026-04-22 13:07 14.06028 120.19967 21862 ft 362 kts 23°
2026-04-22 13:07 14.08381 120.21027 21436 ft 360 kts 22°
2026-04-22 13:07 14.10718 120.22081 21013 ft 358 kts 22°
2026-04-22 13:08 14.12989 120.23101 20597 ft 356 kts 22°
2026-04-22 13:08 14.15244 120.24113 20184 ft 354 kts 22°
2026-04-22 13:08 14.17520 120.25137 19764 ft 352 kts 22°
2026-04-22 13:08 14.19748 120.26141 19354 ft 350 kts 22°
2026-04-22 13:09 14.22004 120.27160 18935 ft 348 kts 22°
2026-04-22 13:09 14.24221 120.28162 18524 ft 346 kts 22°
2026-04-22 13:09 14.26134 120.29027 18170 ft 345 kts 22°
2026-04-22 13:09 14.28288 120.30002 17769 ft 343 kts 22°
2026-04-22 13:10 14.30487 120.30997 17359 ft 341 kts 22°
2026-04-22 13:10 14.32621 120.31965 16962 ft 339 kts 22°
2026-04-22 13:10 14.34802 120.32954 16556 ft 337 kts 22°
2026-04-22 13:10 14.36935 120.33920 16159 ft 336 kts 22°
2026-04-22 13:11 14.39007 120.34859 15769 ft 334 kts 22°
2026-04-22 13:11 14.41068 120.35791 15381 ft 332 kts 22°
2026-04-22 13:11 14.43154 120.36929 14964 ft 333 kts 33°
2026-04-22 13:11 14.44845 120.38544 14571 ft 334 kts 49°
2026-04-22 13:12 14.46147 120.40562 14180 ft 334 kts 58°
2026-04-22 13:12 14.47299 120.42645 13793 ft 332 kts 59°
2026-04-22 13:12 14.48416 120.44706 13412 ft 331 kts 59°
2026-04-22 13:12 14.49552 120.46788 13027 ft 329 kts 58°
2026-04-22 13:13 14.50681 120.48837 12649 ft 328 kts 58°
2026-04-22 13:13 14.51796 120.50847 12278 ft 326 kts 58°
2026-04-22 13:13 14.52933 120.52891 11901 ft 325 kts 58°
2026-04-22 13:13 14.54031 120.54861 11539 ft 323 kts 58°
2026-04-22 13:14 14.55149 120.56864 11169 ft 322 kts 58°
2026-04-22 13:14 14.56248 120.58834 10810 ft 320 kts 58°
2026-04-22 13:14 14.57357 120.60822 10506 ft 315 kts 58°
2026-04-22 13:14 14.58422 120.62734 10423 ft 302 kts 58°
2026-04-22 13:15 14.59468 120.64611 10396 ft 292 kts 58°
2026-04-22 13:15 14.60299 120.66499 10312 ft 288 kts 79°
2026-04-22 13:15 14.60164 120.68501 10237 ft 281 kts 111°
2026-04-22 13:15 14.59162 120.70096 9996 ft 278 kts 141°
2026-04-22 13:16 14.57789 120.71050 9789 ft 274 kts 153°
2026-04-22 13:16 14.55879 120.72088 9486 ft 272 kts 155°
2026-04-22 13:16 14.54468 120.72850 9266 ft 270 kts 154°
2026-04-22 13:16 14.52579 120.73518 9184 ft 251 kts 184°
2026-04-22 13:17 14.50925 120.73058 9039 ft 251 kts 216°
2026-04-22 13:17 14.49757 120.71761 8718 ft 251 kts 242°
2026-04-22 13:17 14.48910 120.70163 8421 ft 252 kts 244°
2026-04-22 13:17 14.48082 120.68556 8136 ft 252 kts 244°
2026-04-22 13:18 14.47239 120.66970 7862 ft 252 kts 243°
2026-04-22 13:18 14.46388 120.65410 7595 ft 251 kts 242°
2026-04-22 13:18 14.45391 120.63921 7284 ft 253 kts 221°
2026-04-22 13:18 14.43885 120.63197 6992 ft 253 kts 184°
2026-04-22 13:19 14.42186 120.63527 6734 ft 253 kts 152°
2026-04-22 13:19 14.40579 120.64381 6545 ft 261 kts 159°
2026-04-22 13:19 14.38785 120.64638 6121 ft 264 kts 188°
2026-04-22 13:19 14.37145 120.64023 5972 ft 254 kts 211°
2026-04-22 13:20 14.35679 120.63022 5760 ft 249 kts 216°
2026-04-22 13:20 14.34189 120.62123 5434 ft 249 kts 197°
2026-04-22 13:20 14.32529 120.62014 5110 ft 246 kts 165°
2026-04-22 13:20 14.31010 120.62773 5057 ft 242 kts 143°
2026-04-22 13:21 14.29698 120.63835 5046 ft 243 kts 138°
2026-04-22 13:21 14.28394 120.64984 5038 ft 244 kts 138°
2026-04-22 13:21 14.27203 120.66058 5039 ft 244 kts 137°
2026-04-22 13:21 14.25901 120.67226 5034 ft 242 kts 137°
2026-04-22 13:22 14.24642 120.68353 5033 ft 242 kts 137°
2026-04-22 13:22 14.23432 120.69433 5034 ft 241 kts 137°
2026-04-22 13:22 14.22138 120.70585 5031 ft 241 kts 137°
2026-04-22 13:22 14.20862 120.71720 5028 ft 241 kts 137°
2026-04-22 13:23 14.19672 120.72920 4963 ft 240 kts 120°
2026-04-22 13:23 14.19244 120.74418 4829 ft 233 kts 84°
2026-04-22 13:23 14.19686 120.75916 4706 ft 229 kts 56°
2026-04-22 13:23 14.20855 120.77110 4577 ft 229 kts 28°
2026-04-22 13:24 14.22167 120.77588 4480 ft 230 kts 14°
2026-04-22 13:24 14.23862 120.77950 4345 ft 229 kts 12°
2026-04-22 13:24 14.25417 120.78272 4220 ft 228 kts 12°
2026-04-22 13:24 14.26948 120.78603 4096 ft 229 kts 13°
2026-04-22 13:25 14.28496 120.78951 3969 ft 229 kts 14°
2026-04-22 13:25 14.30071 120.79318 3842 ft 229 kts 14°
2026-04-22 13:25 14.31624 120.79685 3718 ft 229 kts 14°
2026-04-22 13:25 14.33170 120.80053 3590 ft 228 kts 14°
2026-04-22 13:26 14.34677 120.80411 3466 ft 228 kts 14°
2026-04-22 13:26 14.36217 120.80776 3335 ft 228 kts 14°
2026-04-22 13:26 14.37749 120.81141 3201 ft 228 kts 14°
2026-04-22 13:26 14.39176 120.81627 3029 ft 224 kts 35°
2026-04-22 13:27 14.40203 120.82685 3037 ft 224 kts 56°
2026-04-22 13:27 14.41057 120.84143 3021 ft 217 kts 62°
2026-04-22 13:27 14.41746 120.85464 3014 ft 205 kts 63°
2026-04-22 13:27 14.42391 120.86689 3067 ft 192 kts 61°
2026-04-22 13:28 14.43050 120.87898 2788 ft 186 kts 60°
2026-04-22 13:28 14.43652 120.88981 2522 ft 175 kts 61°
2026-04-22 13:28 14.44235 120.90028 2285 ft 163 kts 61°
2026-04-22 13:28 14.44783 120.91009 2051 ft 149 kts 62°
2026-04-22 13:29 14.45283 120.91910 1843 ft 142 kts 60°
2026-04-22 13:29 14.45773 120.92791 1660 ft 142 kts 62°
2026-04-22 13:29 14.46259 120.93668 1490 ft 141 kts 60°
2026-04-22 13:29 14.46747 120.94544 1310 ft 141 kts 61°
2026-04-22 13:30 14.47239 120.95429 1126 ft 141 kts 61°
2026-04-22 13:30 14.47727 120.96306 930 ft 141 kts 62°
2026-04-22 13:30 14.48160 120.97088 776 ft 140 kts 61°
2026-04-22 13:30 14.48678 120.98019 567 ft 139 kts 62°
2026-04-22 13:31 14.49165 120.98897 380 ft 139 kts 61°
2026-04-22 13:31 14.49645 120.99757 192 ft 139 kts 62°
2026-04-22 13:31 14.50118 121.00617 85 ft 126 kts 62°
2026-04-22 13:31 14.50473 121.01253 84 ft 76 kts 60°
2026-04-22 13:32 14.50654 121.01576 84 ft 27 kts 60°
2026-04-22 13:32 14.50722 121.01674 84 ft 14 kts 47°
2026-04-22 13:32 14.50798 121.01743 84 ft 12 kts 38°
2026-04-22 13:32 14.50845 121.01781 84 ft 6 kts 34°
2026-04-22 13:33 14.50892 121.01781 84 ft 7 kts 329°
2026-04-22 13:33 14.50935 121.01742 84 ft 8 kts 315°
2026-04-22 13:33 14.50977 121.01698 84 ft 9 kts 315°
2026-04-22 13:33 14.51026 121.01647 84 ft 10 kts 315°
2026-04-22 13:34 14.51079 121.01592 84 ft 10 kts 315°
2026-04-22 13:34 14.51131 121.01538 84 ft 11 kts 315°
2026-04-22 13:34 14.51181 121.01487 84 ft 12 kts 315°
2026-04-22 13:34 14.51229 121.01437 84 ft 5 kts 316°
2026-04-22 13:35 14.51268 121.01423 84 ft 6 kts
2026-04-22 13:35 14.51304 121.01455 84 ft 7 kts 53°
2026-04-22 13:35 14.51339 121.01500 84 ft 8 kts 51°
2026-04-22 13:35 14.51381 121.01547 84 ft 9 kts 45°
2026-04-22 13:36 14.51422 121.01585 84 ft 6 kts 32°
2026-04-22 13:36 14.51467 121.01578 84 ft 7 kts 319°
2026-04-22 13:36 14.51507 121.01537 84 ft 9 kts 315°
2026-04-22 13:36 14.51557 121.01484 84 ft 11 kts 315°
2026-04-22 13:37 14.51615 121.01425 84 ft 12 kts 311°
2026-04-22 13:37 14.51677 121.01356 84 ft 13 kts 317°
2026-04-22 13:37 14.51751 121.01285 84 ft 15 kts 315°
2026-04-22 13:37 14.51823 121.01210 84 ft 14 kts 315°
2026-04-22 13:38 14.51893 121.01138 84 ft 13 kts 315°
2026-04-22 13:38 14.52019 121.01008 84 ft 12 kts 315°
2026-04-22 13:38 14.52077 121.00948 84 ft 11 kts 315°
2026-04-22 13:39 14.52131 121.00892 84 ft 10 kts 315°
2026-04-22 13:39 14.52158 121.00871 84 ft 3 kts 359°
2026-04-22 13:39 14.52179 121.00884 84 ft 3 kts 50°
2026-04-22 13:39 14.52197 121.00904 84 ft 4 kts 45°
2026-04-22 13:40 14.52221 121.00929 84 ft 5 kts 45°
2026-04-22 13:40 14.52240 121.00948 84 ft 1 kts 45°
2026-04-22 13:40 14.52243 121.00951 84 ft 0 kts 45°